Republic Airport
KFRG : now visible

Airfield :











YOU CAN JOIN US ON...

 
LOGIN :

Register | Disclaimer

   EN    FR    IT 

 









Legend :    VFR   Marginal VFR   IFR   Intensive IFR   Very Intensive IFR
Visi :
Ceiling :
>= 8 km
>= 3000ft
5 to 8 km
1000 to 3000 ft
1500m to 5 km
500 to 1000 ft
800 to 1500m
200 to 500 ft
< 800m
< 200 ft
Symbols :   Thunderstorms  Fog  Heavy snow  Heavy precipitations  Wind > 20 kt






- Airport Elevation : 82 ft


KFRG - Republic

CURRENT METAR :
  • 241053Z AUTO 35009KT 10SM CLR 04/01 A2953 RMK AO1 SLP000 T00440011

EXPIRED METARs :
  • 240953Z AUTO 35007G16KT 10SM CLR 04/01 A2951 RMK AO1 SLP994 T00440011
  • 240853Z AUTO 33008G17KT 10SM CLR 06/01 A2950 RMK AO1 SLP988 T00560011 51010
  • 240753Z AUTO 33009KT 10SM CLR 05/02 A2949 RMK AO1 SLP985 T00500017
  • 240653Z AUTO 32005KT 10SM CLR 05/02 A2948 RMK AO1 SLP982 T00500017

TAF N/A
KZNY FIR / North America



MET'MAP, your aeronautical weather chart ! - Copyright ORBIFLY December 2007 - Disclaimer

ORBIFLY MET'MAP TEAM :

Programming & Development : Alexandra Zaïnal
Original concept : Baudouin d'Aumeries
Technical & hardware support : Manuel Goepfert
Assistance : Marc-Olivier Méhu




SOURCES & CREDITS :

   NOAA       Earth
Advisory